Location: *
(48.8489°N, 2.3218°E)
Time: 08:03:51
(UTC+00:00)

Cosmos 2278 - Pass Details

Date: 23 August 2019
Orbit: 841 x 852 km, 71.1° (Epoch: 15 September)

Event Time Altitude Azimuth Distance (km) Brightness Sun altitude
Rises 19:58:38 0° 334° (NNW) 3,409 7.9 -10.8°
Reaches altitude 10° 20:01:14 10° 342° (NNW) 2,472 6.9 -11.2°
Maximum altitude 20:06:36 42° 53° (NE) 1,193 4.3 -11.9°
Enters shadow 20:10:38 17° 117° (ESE) 2,017 5.0 -12.5°
